Temperature
18 18 18 18 18 18 18 18 18 18 18 18 18 18 18 18 17 17 17 17 17 17 17 17 17 17 17 17 16 16 16 16 16 16 16 16 16 16 16 16 16 16 16
18 18 18 18 18 18 18 18 18 18 18 18 18 18 18 17 17 17 17 17 17 17 17 17 17 17 17 16 16 16 16 16 16 16 16 16 16 16 16 16 16 16 16
18 18 18 18 18 18 18 18 18 18 18 17 17 17 17 17 17 17 17 17 17 17 17 17 16 16 16 16 16 16 16 16 16 16 16 16 16 16 16 16 16 16 15
18 18 18 18 18 18 18 18 18 18 17 17 17 17 17 17 17 17 17 17 17 17 16 16 16 16 16 16 16 16 16 16 16 16 16 16 16 16 16 16 15 15 15
18 18 18 18 18 18 18 18 18 18 17 17 17 17 17 17 17 17 17 17 16 16 16 16 16 16 16 16 16 16 16 16 16 16 16 16 16 16 16 15 15 15 15
18 18 18 18 18 18 18 18 17 17 17 17 17 17 17 17 17 17 16 16 16 16 16 16 16 16 16 16 16 16 16 16 16 16 15 15 15 15 15 15 15 15 15
18 18 18 18 18 18 18 18 17 17 17 17 17 17 16 16 16 16 16 16 16 16 16 16 16 16 16 16 16 16 15 16 16 15 15 15 15 15 15 15 15 15 15
18 18 18 18 18 18 18 17 17 17 17 17 17 17 16 16 16 16 16 16 16 16 16 16 16 16 16 16 15 15 15 15 15 15 15 15 15 15 15 15 15 15 15
18 18 18 18 18 18 18 17 17 17 17 17 17 17 16 16 16 16 16 16 16 16 16 16 15 15 15 15 15 15 15 15 15 15 15 15 15 15 15 15 15 15 15
18 18 18 18 18 18 18 17 17 17 17 17 17 17 17 16 16 16 16 16 16 16 16 16 15 15 15 15 15 15 15 15 15 15 15 15 15 15 15 14 14 14 14
18 18 18 18 18 18 17 17 17 17 17 17 17 17 17 16 16 16 16 16 16 15 15 15 15 15 15 15 15 15 15 15 15 15 15 15 15 14 14 14 14 14 14
18 18 18 18 18 17 17 17 17 17 17 17 17 17 17 16 16 16 16 16 16 16 15 15 15 15 15 15 15 15 15 15 14 14 15 14 14 14 14 14 14 14 14
18 18 18 18 18 18 17 17 17 17 17 17 17 17 17 17 16 16 16 16 15 15 15 15 15 15 15 15 15 15 15 14 14 14 14 14 14 14 14 14 14 14 14
18 18 18 18 18 18 17 17 17 17 17 17 17 17 17 17 16 16 16 16 15 15 15 15 15 15 15 15 15 15 14 14 14 14 14 14 14 14 14 14 14 14 13
18 18 18 18 18 18 18 17 17 17 17 17 17 17 17 17 16 16 16 16 16 15 15 15 15 15 15 15 14 14 14 14 14 14 14 14 14 14 14 13 13 13 13
18 18 18 18 18 18 18 17 17 17 17 17 17 17 17 17 16 16 16 16 16 16 15 15 15 15 15 14 14 14 14 14 14 14 13 13 13 13 13 13 13 13 13
18 18 18 18 18 18 18 17 17 17 17 17 17 17 17 17 16 16 16 16 16 16 15 15 15 15 14 14 14 14 13 13 13 13 13 13 13 13 13 13 13 12 12
18 18 18 18 18 18 18 18 17 17 17 17 17 17 17 16 16 16 16 16 15 15 15 15 15 14 14 14 14 14 13 13 13 13 13 13 13 13 13 12 12 12 12
18 18 18 18 18 18 18 18 17 17 17 17 17 17 17 16 16 16 16 16 15 15 15 15 15 14 14 14 14 14 13 13 13 13 13 13 13 12 12 12 12 12 12
18 18 18 18 18 18 17 17 17 17 17 17 17 17 17 16 16 16 16 16 15 15 15 15 14 14 14 14 14 13 13 13 13 13 13 13 13 12 12 12 12 12 12
18 18 18 18 18 17 17 17 17 17 17 17 17 17 16 16 16 16 15 15 15 15 15 14 14 14 14 14 13 13 13 13 13 13 13 12 12 12 12 12 12 12 11
18 18 18 18 17 17 17 17 17 17 17 17 17 16 16 16 16 16 15 15 15 15 15 14 14 14 14 14 13 13 13 13 12 13 12 12 12 12 12 12 12 12 11
18 18 18 18 17 17 17 17 17 17 16 16 16 16 16 16 16 15 15 15 15 15 14 14 14 14 14 14 13 13 13 13 12 12 12 12 12 12 12 12 12 11 11
18 18 17 17 17 17 17 17 16 16 16 16 16 16 16 16 15 15 15 15 15 14 14 14 14 14 13 13 13 13 13 12 12 12 12 12 12 12 12 12 11 11 11
18 18 17 17 17 17 17 16 16 16 16 16 16 16 16 15 15 15 15 15 14 14 14 14 14 13 13 13 13 12 12 12 12 12 12 11 12 12 12 12 11 11 11
18 17 17 17 17 17 16 16 16 16 16 16 15 15 15 15 15 15 14 14 14 14 14 14 14 13 13 13 13 12 12 12 12 11 12 11 11 11 11 11 11 11 11
Wind_Speed
2 2 2 2 1 2 2 2 2 3 3 3 4 4 3 3 2 2 2 4 5 5 6 6 6 6 6 7 7 7 7 7 8 9 9 9 8 7 7 7 6 6 7
2 2 2 1 1 2 2 2 2 3 3 3 3 3 3 3 2 2 2 3 4 5 5 4 4 5 5 6 6 6 7 7 7 8 8 8 8 7 7 7 7 7 7
3 3 2 2 1 2 3 3 3 3 3 3 3 3 3 3 3 3 3 2 2 3 3 3 3 4 4 5 6 6 6 6 6 7 8 8 8 8 8 8 7 7 7
3 3 3 2 2 3 3 3 3 3 3 3 3 2 3 3 3 3 4 3 2 2 1 1 1 1 2 4 5 5 5 5 5 6 7 8 8 8 7 7 7 7 7
3 4 3 2 3 3 2 3 3 3 3 4 3 3 3 2 3 3 3 3 3 3 2 2 2 1 1 1 3 4 4 4 5 5 6 6 7 6 6 7 7 7 7
3 4 3 2 3 3 2 3 4 3 3 4 4 4 3 3 3 3 2 3 3 3 3 3 3 3 2 2 1 1 2 2 2 3 4 5 6 6 6 6 7 7 7
4 4 2 2 2 3 3 3 4 5 3 3 4 3 4 4 3 2 2 3 3 3 4 3 2 2 2 2 2 0 1 1 1 2 4 5 5 5 5 6 6 6 7
3 3 3 2 3 3 3 3 3 3 2 2 2 2 1 2 3 3 2 2 2 2 2 2 2 2 2 2 2 1 0 1 2 2 2 4 5 5 5 5 6 6 6
2 3 3 3 3 3 3 3 4 4 3 1 1 2 2 1 0 2 2 1 1 1 1 1 2 1 1 2 2 1 1 1 2 2 2 2 4 4 5 6 6 5 6
2 3 3 3 3 3 4 3 3 3 3 2 1 1 1 2 2 0 1 1 1 0 0 0 1 1 1 1 2 1 1 2 2 2 2 2 2 3 4 5 5 5 5
1 1 3 3 3 3 3 3 3 3 2 2 2 1 2 2 1 2 1 1 1 1 0 0 0 1 1 1 1 1 1 2 3 3 2 2 1 0 1 2 2 3 3
1 0 2 2 2 3 3 3 3 4 3 3 2 2 2 2 2 2 2 1 1 1 1 0 0 1 1 1 1 1 1 2 3 3 3 3 3 2 0 0 1 1 1
1 1 1 1 2 2 3 3 3 3 3 3 3 2 2 2 2 3 3 1 1 1 1 0 0 1 1 1 1 1 2 3 3 4 4 3 3 3 3 2 1 1 2
2 2 2 2 2 2 3 3 2 2 2 3 3 2 2 2 3 3 3 3 1 0 1 1 1 0 0 1 1 2 2 3 4 4 4 4 4 4 4 4 3 3 3
2 2 2 2 2 2 2 3 2 2 2 2 2 2 2 2 2 3 3 3 3 2 2 2 1 0 0 1 1 1 1 2 3 3 4 4 4 4 4 5 6 6 5
2 2 2 2 2 2 2 2 2 2 2 1 1 2 1 1 2 2 3 3 2 3 2 1 2 1 1 1 1 1 1 1 2 3 4 4 4 4 4 5 5 5 5
3 3 3 2 2 2 2 2 2 2 2 1 1 2 1 1 2 2 2 3 2 2 2 1 0 0 1 1 1 1 1 1 1 2 2 2 3 3 4 4 4 4 4
3 3 2 2 2 2 2 3 2 2 2 2 1 2 1 1 2 2 2 3 2 2 2 1 0 1 1 1 1 1 1 1 1 0 0 1 1 2 3 3 3 3 4
3 3 3 3 2 2 2 2 3 2 2 2 2 2 2 3 2 2 2 2 2 2 1 2 1 1 0 1 1 0 1 1 1 1 2 2 2 1 2 2 2 2 2
4 4 3 3 2 2 2 3 3 3 2 2 2 2 2 3 3 3 3 3 3 3 2 2 1 1 1 0 1 1 1 1 2 1 2 2 2 2 2 3 3 3 3
4 4 3 2 2 2 2 3 3 3 2 2 2 2 2 3 4 4 3 4 4 3 3 2 1 1 1 1 2 2 2 1 2 2 1 2 2 2 3 4 5 5 5
3 3 3 3 2 2 3 5 4 3 3 2 2 1 1 2 3 4 5 5 6 5 4 3 3 3 3 3 3 3 2 1 2 2 2 3 3 4 4 5 6 7 7
2 2 3 3 3 2 3 4 5 3 3 2 2 2 1 1 2 2 3 4 5 5 6 5 4 5 4 5 4 4 4 4 4 2 2 3 3 4 5 6 8 9 9
2 2 3 3 3 2 3 4 4 3 2 2 3 3 2 1 2 2 2 2 3 4 5 5 5 6 5 5 5 5 5 4 2 2 3 3 3 3 4 5 8 10 10
3 3 2 2 2 2 3 4 4 2 2 2 2 2 2 2 3 3 3 2 2 3 3 5 6 6 6 6 5 3 2 2 3 3 3 3 3 3 3 4 6 9 10
3 3 2 2 2 2 3 4 5 3 2 1 1 1 2 2 2 4 3 3 3 4 2 2 2 3 3 3 6 6 5 4 3 3 3 4 3 2 3 3 4 5 7
Wind_Direction
125 121 119 118 120 121 119 114 106 104 102 107 112 112 115 124 140 146 154 157 163 170 170 172 168 172 180 182 184 189 192 191 190 194 200 203 204 204 207 207 210 209 211
134 124 108 96 108 120 118 119 115 105 102 103 97 99 105 110 112 124 135 145 148 155 160 169 178 183 184 189 191 195 198 198 198 197 199 201 201 202 208 212 214 214 212
153 138 114 106 108 111 104 101 100 96 96 96 93 92 96 96 98 99 104 107 128 155 173 182 198 201 205 201 198 202 203 205 204 205 204 205 208 211 214 216 218 221 221
153 136 121 112 107 105 108 112 109 99 96 99 92 80 81 88 95 93 93 90 88 88 115 131 162 192 214 212 210 206 204 209 213 216 213 212 214 215 218 222 226 229 229
143 136 129 123 114 104 103 115 104 110 110 103 94 78 69 77 87 96 97 98 95 83 77 64 64 82 89 207 208 207 207 216 221 214 211 211 213 217 225 228 228 229 228
131 133 126 121 116 104 96 104 105 101 112 112 97 77 61 61 68 76 95 95 94 88 81 72 61 50 53 53 74 191 203 218 215 214 212 217 218 219 222 227 230 233 233
131 136 132 116 112 114 117 117 112 106 98 105 96 73 51 55 59 58 76 84 83 89 87 77 63 54 35 22 7 276 220 201 214 221 223 223 221 218 223 231 234 233 234
145 146 144 137 129 124 117 117 116 112 110 108 110 109 72 29 31 43 62 90 87 81 80 77 64 49 29 12 360 359 226 227 239 244 243 232 229 234 236 235 237 233 229
131 134 143 142 140 140 140 142 141 137 145 127 97 132 141 188 18 23 38 57 72 74 56 64 55 31 24 12 351 342 342 338 310 301 284 257 238 237 238 234 228 223 223
132 146 151 149 146 146 148 157 146 143 141 152 110 82 121 146 151 136 11 37 58 83 350 37 28 7 360 359 350 350 357 347 334 338 339 318 268 248 234 227 226 225 222
76 126 148 150 152 157 161 156 146 147 147 155 152 135 102 81 110 154 201 315 357 353 331 353 10 343 326 324 326 359 359 357 359 360 344 355 355 305 207 204 216 221 223
24 86 152 154 158 163 168 167 165 162 161 159 165 167 162 162 170 160 181 226 267 320 348 30 42 332 323 328 307 352 22 30 35 34 29 27 27 30 57 186 181 186 175
208 222 171 163 170 171 170 161 162 172 171 173 180 188 189 189 168 159 159 178 215 297 331 337 303 314 356 12 4 37 51 59 49 41 38 40 45 51 58 76 91 108 95
209 206 174 177 184 170 165 155 159 176 171 180 191 187 189 195 177 171 170 161 158 226 272 272 319 303 14 47 31 68 53 51 49 45 44 45 50 60 68 72 83 92 90
202 190 180 178 179 169 161 154 162 172 167 182 189 186 191 193 184 185 177 173 167 192 233 241 239 256 107 76 56 76 60 60 60 56 55 55 58 66 74 79 81 83 86
189 185 189 184 179 159 152 148 150 154 152 177 182 170 174 182 170 170 173 178 179 179 207 221 219 210 165 110 101 100 94 95 76 68 63 64 69 79 86 89 87 87 87
187 195 184 182 184 171 154 142 142 139 145 152 152 150 165 160 160 170 167 169 166 161 177 234 186 146 151 163 92 89 91 97 86 79 77 74 82 95 104 106 104 102 98
190 196 185 176 186 187 163 156 159 150 151 158 158 144 157 143 145 164 162 163 166 166 166 195 186 173 192 196 182 178 130 164 183 216 189 134 119 111 115 118 122 120 117
187 183 176 183 196 190 172 171 164 155 155 162 160 161 169 145 143 145 143 147 161 154 144 159 186 194 202 164 152 205 215 262 249 253 239 228 206 185 158 144 139 138 141
182 184 179 187 199 196 186 175 160 157 154 156 159 166 174 173 177 170 164 166 159 145 133 139 153 187 212 183 172 219 276 277 267 271 255 237 226 221 213 206 203 203 207
191 186 177 182 193 194 198 181 174 171 170 167 158 171 189 187 181 182 181 177 167 165 160 166 184 191 210 186 214 211 229 270 269 249 237 242 234 234 233 231 226 226 227
186 176 177 179 183 205 188 177 170 169 174 180 187 207 213 203 197 193 189 183 177 178 188 191 207 218 232 225 212 202 205 225 264 229 214 250 228 240 240 235 234 230 232
180 179 188 179 187 201 185 177 174 169 178 191 197 210 232 239 201 198 186 185 197 198 191 192 205 224 225 217 202 209 216 223 238 223 198 248 237 243 246 240 233 232 233
175 187 192 187 185 206 185 177 173 172 188 214 211 207 213 241 221 194 181 192 218 225 219 212 223 232 230 217 206 210 220 232 255 224 194 238 246 249 251 243 235 235 236
183 190 182 183 193 222 194 183 166 164 187 226 224 206 204 222 230 193 177 202 243 262 242 231 236 242 237 221 198 181 189 211 254 250 206 225 246 250 251 244 239 234 233
189 184 179 182 195 224 212 189 172 171 189 227 253 237 216 222 218 186 190 204 239 260 261 268 265 265 249 223 200 201 203 215 242 247 210 207 223 218 248 241 236 233 232
Height
1531 1532 1534 1535 1537 1538 1539 1541 1542 1543 1544 1545 1546 1547 1548 1549 1550 1550 1551 1551 1552 1552 1553 1554 1554 1555 1556 1557 1557 1558 1559 1560 1562 1563 1564 1565 1566 1567 1568 1569 1570 1570 1571
1532 1533 1535 1537 1538 1539 1541 1542 1543 1544 1545 1546 1547 1548 1548 1549 1550 1550 1551 1552 1552 1552 1553 1553 1554 1555 1555 1556 1557 1558 1558 1560 1561 1562 1563 1564 1565 1565 1566 1567 1568 1568 1569
1534 1535 1536 1538 1539 1540 1541 1542 1543 1545 1546 1547 1547 1548 1549 1549 1550 1551 1551 1552 1552 1553 1553 1553 1554 1555 1555 1556 1556 1557 1558 1558 1559 1560 1561 1562 1563 1564 1565 1565 1566 1566 1567
1535 1536 1538 1539 1540 1541 1542 1543 1544 1545 1546 1547 1547 1548 1549 1550 1550 1551 1551 1552 1552 1553 1553 1553 1554 1554 1554 1555 1555 1556 1556 1557 1558 1559 1560 1560 1561 1562 1563 1563 1564 1564 1565
1537 1538 1539 1540 1541 1542 1543 1544 1544 1545 1546 1547 1547 1548 1549 1550 1550 1551 1551 1552 1552 1552 1553 1553 1553 1554 1554 1554 1554 1555 1555 1556 1556 1557 1557 1558 1559 1560 1560 1561 1561 1562 1562
1539 1539 1540 1541 1542 1543 1544 1544 1545 1546 1546 1547 1547 1548 1549 1550 1550 1551 1551 1551 1552 1552 1552 1552 1553 1553 1553 1553 1554 1554 1554 1554 1554 1555 1555 1556 1556 1557 1558 1558 1559 1559 1560
1539 1540 1541 1542 1542 1543 1544 1545 1545 1546 1546 1547 1547 1548 1549 1550 1550 1551 1551 1551 1551 1552 1552 1552 1552 1552 1552 1553 1553 1553 1553 1552 1553 1553 1553 1554 1554 1555 1555 1555 1556 1556 1556
1539 1540 1541 1542 1543 1544 1544 1545 1545 1546 1547 1547 1548 1548 1549 1551 1551 1551 1551 1551 1551 1551 1552 1552 1551 1552 1552 1552 1552 1552 1552 1552 1552 1552 1551 1551 1552 1552 1552 1552 1553 1553 1553
1540 1541 1542 1542 1543 1544 1544 1545 1546 1546 1547 1548 1548 1549 1549 1549 1550 1551 1551 1551 1551 1551 1551 1551 1551 1551 1551 1551 1551 1551 1550 1550 1550 1550 1550 1550 1550 1550 1550 1550 1550 1550 1551
1540 1541 1541 1542 1543 1544 1544 1545 1545 1546 1547 1547 1548 1548 1549 1549 1550 1550 1551 1551 1551 1551 1551 1551 1551 1551 1550 1550 1550 1549 1549 1549 1549 1549 1548 1548 1548 1548 1548 1547 1548 1548 1548
1541 1541 1541 1542 1543 1543 1544 1545 1545 1546 1546 1547 1547 1548 1548 1548 1549 1549 1549 1550 1550 1550 1550 1550 1550 1550 1550 1549 1549 1549 1548 1548 1548 1548 1547 1547 1546 1546 1545 1545 1546 1546 1546
1540 1541 1541 1542 1542 1543 1543 1544 1545 1545 1546 1546 1546 1547 1547 1547 1547 1548 1548 1548 1548 1549 1549 1549 1549 1549 1549 1548 1548 1548 1547 1547 1547 1546 1546 1545 1544 1544 1543 1543 1543 1543 1544
1540 1540 1541 1541 1542 1542 1543 1543 1544 1545 1545 1545 1545 1546 1546 1546 1546 1546 1547 1547 1547 1547 1548 1548 1548 1548 1548 1548 1547 1547 1546 1546 1546 1545 1545 1544 1543 1543 1542 1542 1541 1541 1542
1540 1540 1541 1541 1541 1542 1542 1543 1543 1544 1544 1544 1544 1544 1544 1544 1545 1545 1545 1546 1545 1546 1546 1546 1547 1547 1547 1547 1546 1546 1546 1545 1545 1544 1543 1543 1542 1541 1541 1540 1540 1540 1540
1539 1540 1540 1541 1541 1541 1542 1542 1542 1543 1543 1543 1543 1543 1543 1543 1543 1543 1543 1544 1545 1544 1544 1545 1545 1545 1545 1545 1545 1545 1544 1544 1544 1543 1542 1542 1541 1540 1540 1539 1539 1539 1539
1538 1539 1540 1540 1540 1541 1541 1541 1541 1541 1542 1542 1542 1541 1541 1541 1541 1541 1542 1542 1543 1543 1543 1543 1543 1544 1544 1544 1544 1543 1543 1543 1543 1542 1542 1541 1540 1540 1539 1539 1538 1538 1538
1537 1538 1539 1539 1539 1540 1540 1540 1540 1540 1540 1540 1540 1540 1540 1540 1540 1540 1540 1541 1541 1542 1541 1541 1542 1542 1542 1542 1542 1542 1542 1542 1541 1541 1540 1540 1539 1539 1538 1538 1538 1537 1537
1536 1537 1538 1538 1538 1539 1539 1539 1539 1539 1539 1539 1539 1539 1539 1539 1539 1539 1539 1539 1539 1540 1540 1539 1540 1541 1541 1541 1541 1540 1540 1540 1540 1540 1539 1539 1538 1538 1537 1537 1537 1536 1536
1535 1535 1536 1536 1537 1538 1538 1538 1538 1538 1538 1538 1538 1538 1538 1538 1537 1537 1538 1538 1538 1538 1538 1538 1538 1539 1539 1539 1539 1539 1539 1539 1539 1538 1538 1538 1537 1537 1536 1536 1536 1535 1535
1533 1534 1534 1535 1536 1536 1536 1537 1537 1537 1537 1537 1537 1537 1537 1537 1537 1537 1536 1536 1537 1537 1537 1537 1537 1537 1537 1537 1537 1537 1537 1537 1537 1537 1537 1536 1536 1535 1535 1535 1534 1534 1533
1531 1532 1532 1533 1534 1535 1535 1535 1535 1535 1535 1535 1535 1535 1535 1535 1535 1535 1535 1535 1535 1535 1535 1535 1535 1535 1535 1535 1535 1535 1535 1535 1535 1535 1535 1534 1534 1533 1533 1532 1532 1532 1531
1528 1529 1530 1531 1532 1533 1533 1534 1534 1533 1533 1534 1534 1534 1534 1534 1534 1534 1534 1534 1534 1533 1533 1533 1533 1532 1532 1533 1533 1533 1532 1532 1532 1533 1532 1532 1531 1531 1530 1530 1530 1529 1529
1526 1527 1528 1529 1530 1531 1532 1532 1532 1532 1532 1532 1532 1532 1532 1532 1532 1532 1532 1531 1531 1531 1531 1531 1531 1530 1530 1530 1530 1530 1529 1529 1529 1529 1529 1528 1528 1527 1527 1527 1527 1526 1526
1523 1524 1525 1526 1527 1528 1529 1529 1530 1529 1529 1529 1530 1529 1530 1530 1530 1530 1530 1529 1529 1529 1529 1529 1529 1528 1528 1528 1527 1527 1527 1526 1526 1526 1526 1525 1524 1524 1524 1524 1524 1523 1523
1520 1522 1523 1524 1524 1526 1527 1527 1527 1527 1527 1527 1527 1527 1527 1527 1527 1527 1527 1527 1526 1526 1526 1526 1526 1525 1525 1525 1524 1524 1523 1523 1522 1522 1522 1521 1520 1520 1520 1520 1520 1520 1519
1518 1520 1520 1521 1522 1523 1524 1524 1524 1524 1524 1524 1524 1524 1524 1524 1524 1524 1524 1523 1523 1523 1523 1522 1522 1522 1521 1521 1520 1520 1519 1519 1518 1518 1518 1517 1516 1516 1515 1515 1515 1515 1515